When you browse on this site, cookies collect data to enhance your experience and personalize the content and advertising you see.
Visit our Privacy Policy to learn more. By continuing to use the site, you agree to this use of cookies and data.
  • In Deutschland
  • Länderverzeichnis
  • Für 7 Tage
  • Wassertemperatur
  • Wetterkarte
  • Widgets
  • user-avatar
    Anmelden

    Stündliche Wetter Goldene Küste

    Heute, 2 Juni, Dienstag

    Zeit Temperatur Niederschläge Wind Luftdruck Luftfeuchtigkeit
    00:00 +14°C° 0 mm 4 m/S 756 mmHg 91%
    01:00 +13°C° 0 mm 4 m/S 756 mmHg 92%
    02:00 +13°C° 0 mm 4 m/S 756 mmHg 90%
    03:00 +12°C° 0 mm 4 m/S 757 mmHg 88%
    04:00 +12°C° 0 mm 4 m/S 757 mmHg 85%
    05:00 +11°C° 0 mm 4 m/S 758 mmHg 85%
    06:00 +11°C° 0 mm 4 m/S 758 mmHg 85%
    07:00 +10°C° 0 mm 4 m/S 759 mmHg 85%
    08:00 +12°C° 0 mm 4 m/S 759 mmHg 70%
    09:00 +13°C° 0 mm 4 m/S 759 mmHg 55%
    10:00 +15°C° 0 mm 5 m/S 759 mmHg 42%
    11:00 +16°C° 0 mm 5 m/S 759 mmHg 37%
    12:00 +17°C° 0 mm 5 m/S 758 mmHg 33%
    13:00 +19°C° 0 mm 5 m/S 758 mmHg 28%
    14:00 +17°C° 0 mm 5 m/S 758 mmHg 31%
    15:00 +17°C° 0 mm 5 m/S 758 mmHg 34%
    16:00 +16°C° 0 mm 5 m/S 758 mmHg 38%
    17:00 +14°C° 0 mm 5 m/S 759 mmHg 43%
    18:00 +12°C° 0 mm 5 m/S 759 mmHg 49%
    19:00 +9°C° 0 mm 5 m/S 760 mmHg 54%
    20:00 +10°C° 0 mm 4 m/S 760 mmHg 57%
    21:00 +8°C° 0 mm 4 m/S 761 mmHg 60%
    22:00 +8°C° 0 mm 3 m/S 761 mmHg 61%
    23:00 +8°C° 0 mm 3 m/S 761 mmHg 64%

    Morgen, 3 Juni, Mittwoch

    Zeit Temperatur Niederschläge Wind Luftdruck Luftfeuchtigkeit
    00:00 +7°C° 0 mm 2 m/S 761 mmHg 66%
    01:00 +7°C° 0 mm 2 m/S 760 mmHg 68%
    02:00 +7°C° 0 mm 2 m/S 760 mmHg 69%
    03:00 +7°C° 0 mm 2 m/S 760 mmHg 70%
    04:00 +6°C° 0 mm 2 m/S 761 mmHg 71%
    05:00 +7°C° 0 mm 2 m/S 761 mmHg 70%
    06:00 +7°C° 0 mm 2 m/S 761 mmHg 69%
    07:00 +7°C° 0 mm 2 m/S 762 mmHg 68%
    08:00 +10°C° 0 mm 2 m/S 762 mmHg 58%
    09:00 +14°C° 0 mm 1 m/S 762 mmHg 48%
    10:00 +19°C° 0 mm 1 m/S 762 mmHg 38%
    11:00 +20°C° 0 mm 1 m/S 761 mmHg 36%
    12:00 +21°C° 0 mm 1 m/S 761 mmHg 34%
    13:00 +22°C° 0 mm 1 m/S 760 mmHg 32%
    14:00 +20°C° 0 mm 2 m/S 761 mmHg 38%
    15:00 +19°C° 0 mm 3 m/S 761 mmHg 44%
    16:00 +17°C° 0 mm 3 m/S 761 mmHg 50%
    17:00 +14°C° 0 mm 4 m/S 762 mmHg 57%
    18:00 +13°C° 0 mm 4 m/S 763 mmHg 64%
    19:00 +11°C° 0 mm 4 m/S 763 mmHg 70%
    20:00 +11°C° 0 mm 4 m/S 764 mmHg 72%
    21:00 +11°C° 0 mm 4 m/S 764 mmHg 74%
    22:00 +11°C° 0 mm 4 m/S 765 mmHg 76%
    23:00 +10°C° 0 mm 4 m/S 765 mmHg 78%

    übermorgen, 4 Juni, Donnerstag

    Zeit Temperatur Niederschläge Wind Luftdruck Luftfeuchtigkeit
    00:00 +9°C° 0 mm 5 m/S 765 mmHg 80%
    01:00 +9°C° 0 mm 5 m/S 765 mmHg 82%
    02:00 +8°C° 0 mm 5 m/S 765 mmHg 81%
    03:00 +8°C° 0 mm 5 m/S 765 mmHg 80%
    04:00 +8°C° 0 mm 5 m/S 765 mmHg 79%
    05:00 +8°C° 0 mm 5 m/S 765 mmHg 81%
    06:00 +8°C° 0 mm 5 m/S 766 mmHg 83%
    07:00 +7°C° 0 mm 5 m/S 766 mmHg 84%
    08:00 +10°C° 0 mm 5 m/S 766 mmHg 75%
    09:00 +14°C° 0 mm 6 m/S 767 mmHg 67%
    10:00 +17°C° 0 mm 6 m/S 767 mmHg 58%
    11:00 +19°C° 0 mm 6 m/S 766 mmHg 58%
    12:00 +19°C° 0 mm 6 m/S 766 mmHg 57%
    13:00 +19°C° 0 mm 6 m/S 765 mmHg 57%
    14:00 +19°C° 0.1 mm 6 m/S 765 mmHg 60%
    15:00 +17°C° 0.1 mm 5 m/S 765 mmHg 63%
    16:00 +17°C° 0.1 mm 5 m/S 765 mmHg 66%
    17:00 +15°C° 0.1 mm 5 m/S 766 mmHg 72%
    18:00 +14°C° 0.1 mm 5 m/S 766 mmHg 77%
    19:00 +13°C° 0.1 mm 5 m/S 767 mmHg 83%
    20:00 +12°C° 0.1 mm 5 m/S 767 mmHg 85%
    21:00 +12°C° 0.1 mm 5 m/S 767 mmHg 88%
    22:00 +10°C° 0.1 mm 5 m/S 767 mmHg 90%
    23:00 +11°C° 0.1 mm 4 m/S 767 mmHg 91%

    5 Juni, Freitag

    Zeit Temperatur Niederschläge Wind Luftdruck Luftfeuchtigkeit
    00:00 +10°C° 0.1 mm 4 m/S 767 mmHg 92%
    01:00 +10°C° 0.1 mm 4 m/S 767 mmHg 93%
    02:00 +11°C° 0 mm 4 m/S 766 mmHg 90%
    03:00 +11°C° 0 mm 4 m/S 766 mmHg 87%
    04:00 +11°C° 0 mm 4 m/S 766 mmHg 84%
    05:00 +11°C° 0 mm 4 m/S 766 mmHg 84%
    06:00 +11°C° 0 mm 4 m/S 766 mmHg 84%
    07:00 +11°C° 0 mm 4 m/S 767 mmHg 84%
    08:00 +13°C° 0 mm 4 m/S 767 mmHg 76%
    09:00 +17°C° 0 mm 4 m/S 767 mmHg 69%
    10:00 +19°C° 0 mm 4 m/S 766 mmHg 61%
    11:00 +19°C° 0 mm 4 m/S 766 mmHg 61%
    12:00 +19°C° 0 mm 4 m/S 765 mmHg 61%
    13:00 +19°C° 0 mm 4 m/S 765 mmHg 61%
    14:00 +19°C° 0 mm 4 m/S 764 mmHg 62%
    15:00 +19°C° 0 mm 4 m/S 764 mmHg 63%
    16:00 +19°C° 0 mm 4 m/S 764 mmHg 64%
    17:00 +17°C° 0 mm 4 m/S 764 mmHg 73%
    18:00 +16°C° 0 mm 3 m/S 764 mmHg 82%
    19:00 +13°C° 0 mm 3 m/S 765 mmHg 91%
    20:00 +12°C° 0 mm 3 m/S 765 mmHg 92%
    21:00 +12°C° 0 mm 3 m/S 765 mmHg 93%
    22:00 +12°C° 0 mm 3 m/S 765 mmHg 94%
    23:00 +11°C° 0 mm 3 m/S 764 mmHg 93%

    6 Juni, Samstag

    Zeit Temperatur Niederschläge Wind Luftdruck Luftfeuchtigkeit
    00:00 +12°C° 0 mm 2 m/S 764 mmHg 93%
    01:00 +12°C° 0 mm 2 m/S 764 mmHg 92%
    02:00 +12°C° 0.1 mm 2 m/S 764 mmHg 92%
    03:00 +12°C° 0.1 mm 2 m/S 763 mmHg 91%
    04:00 +12°C° 0.1 mm 2 m/S 763 mmHg 90%
    05:00 +12°C° 0.1 mm 2 m/S 763 mmHg 87%
    06:00 +13°C° 0.1 mm 2 m/S 764 mmHg 85%
    07:00 +13°C° 0.1 mm 2 m/S 764 mmHg 83%
    08:00 +16°C° 0 mm 2 m/S 764 mmHg 73%
    09:00 +19°C° 0 mm 1 m/S 763 mmHg 64%
    10:00 +22°C° 0 mm 1 m/S 763 mmHg 54%
    11:00 +22°C° 0 mm 1 m/S 763 mmHg 53%
    12:00 +23°C° 0 mm 2 m/S 762 mmHg 52%
    13:00 +23°C° 0 mm 2 m/S 761 mmHg 50%
    14:00 +21°C° 0 mm 2 m/S 761 mmHg 58%
    15:00 +20°C° 0 mm 2 m/S 761 mmHg 66%
    16:00 +19°C° 0 mm 2 m/S 761 mmHg 74%
    17:00 +17°C° 0 mm 2 m/S 761 mmHg 80%
    18:00 +16°C° 0 mm 2 m/S 761 mmHg 87%
    19:00 +14°C° 0 mm 1 m/S 762 mmHg 93%
    20:00 +14°C° 0 mm 1 m/S 762 mmHg 94%
    21:00 +14°C° 0 mm 1 m/S 762 mmHg 94%
    22:00 +14°C° 0 mm 1 m/S 762 mmHg 95%
    23:00 +13°C° 0.1 mm 1 m/S 762 mmHg 95%

    7 Juni, Sonntag

    Zeit Temperatur Niederschläge Wind Luftdruck Luftfeuchtigkeit
    00:00 +13°C° 0.1 mm 1 m/S 762 mmHg 95%
    01:00 +13°C° 0.1 mm 1 m/S 762 mmHg 95%
    02:00 +13°C° 0.1 mm 1 m/S 762 mmHg 95%
    03:00 +13°C° 0.1 mm 2 m/S 762 mmHg 95%
    04:00 +13°C° 0.1 mm 2 m/S 761 mmHg 94%
    05:00 +13°C° 0.1 mm 2 m/S 762 mmHg 94%
    06:00 +13°C° 0.1 mm 2 m/S 762 mmHg 93%
    07:00 +13°C° 0.1 mm 1 m/S 762 mmHg 93%
    08:00 +15°C° 0.2 mm 1 m/S 762 mmHg 85%
    09:00 +18°C° 0.2 mm 1 m/S 762 mmHg 78%
    10:00 +20°C° 0.2 mm 1 m/S 762 mmHg 71%
    11:00 +20°C° 0.3 mm 1 m/S 761 mmHg 72%
    12:00 +21°C° 0.3 mm 1 m/S 761 mmHg 73%
    13:00 +21°C° 0.3 mm 1 m/S 760 mmHg 75%
    14:00 +20°C° 0.4 mm 1 m/S 760 mmHg 78%
    15:00 +20°C° 0.4 mm 1 m/S 760 mmHg 81%
    16:00 +19°C° 0.4 mm 1 m/S 760 mmHg 85%
    17:00 +16°C° 0.5 mm 2 m/S 761 mmHg 87%
    18:00 +15°C° 0.5 mm 2 m/S 762 mmHg 90%
    19:00 +14°C° 0.5 mm 2 m/S 762 mmHg 93%
    20:00 +13°C° 0.3 mm 2 m/S 763 mmHg 93%
    21:00 +13°C° 0.3 mm 2 m/S 763 mmHg 94%
    22:00 +13°C° 0.3 mm 2 m/S 763 mmHg 95%
    23:00 +12°C° 0.2 mm 2 m/S 763 mmHg 95%
    Mehr zeigen